Powrót do katalogu

STARLINK-5925

AktywnyŁącznośćVLEO
NORAD 55945·PAYLOAD·🇺🇸 United States

Wystrzelony Mar 17, 2023 z Vandenberg Space Force Base

Loading…

Następne Przeloty (najbliższe 24 godziny)

TLE

ŚwieżeSource: CelesTrak SupGP

Epoka: Sep 15, 2026, 01:43 UTC

1 55945C 23037AH  26258.07201389  .00008872  00000+0  74342-3 0  2581
2 55945  70.0013 166.8761 0002845 273.4345 309.5618 14.98329552    14

Śledź STARLINK-5925 w czasie rzeczywistym z AllMySat

Download on the App Store